Weather History for Torrington, WY

Change the Weather History Date:

Friday, December 28, 2012

  Actual Average Record
Temperature  
Mean Temperature 15 °F 27 °F  
Max Temperature 31 °F 40 °F 63 °F (1999)
Min Temperature -1 °F 14 °F -6 °F (2007)
Degree Days  
Heating Degree Days 50 38  
Month to date heating degree days 990 1057  
Since 1 July heating degree days 2333 2640  
Cooling Degree Days 0 0  
Month to date cooling degree days 0 0  
Year to date cooling degree days 1021 678  
Moisture  
Dew Point 7 °F    
Average Humidity 77    
Maximum Humidity 96    
Minimum Humidity 58    
Precipitation  
Precipitation 0.00 in 0.01 in 0.09 in (2006)
Month to date precipitation 0.07 0.34  
Year to date precipitation 7.07 14.18  
Sea Level Pressure  
Sea Level Pressure 30.11 in    
Wind  
Wind Speed 5 mph (West)    
Max Wind Speed 13 mph    
Max Gust Speed 16 mph    
Visibility 9 miles    
Events      
T = Trace of Precipitation, MM = Missing Value Source: NWS Daily Summary

Daily Weather History Graph

Daily Weather History Graph

Search for Another Location

Airport:

Trip Planner

Search our weather history database for the weather conditions in past years. The results will help you decide how hot, cold, wet, or windy it might be!

Date:

Astronomy

Dec. 28, 2012 Rise Set
Actual Time 7:24 AM MST 4:32 PM MST
Civil Twilight 6:52 AM MST 5:04 PM MST
Nautical Twilight 6:17 AM MST 5:39 PM MST
Astronomical Twilight 5:43 AM MST 6:13 PM MST
Moon 5:12 PM MST (12/28) 7:19 AM MST (12/28)
Length of Visible Light 10h 11m
Length of Day
9h 08m
Full, 100% of the Moon is Illuminated
Dec 28
Full
Jan 4
Last Quarter
Jan 11
New
Jan 18
First Quarter
Jan 26
Full

Hourly Weather History & Observations

Time (MST) Temp. Windchill Dew Point Humidity Pressure Visibility Wind Dir Wind Speed Gust Speed Precip Events Conditions
12:53 AM 5.0 °F -5.6 °F 3.0 °F 92% 30.08 in 10.0 mi West 5.8 mph - N/A   Overcast
1:06 AM 5.0 °F -5.6 °F 3.2 °F 92% 29.90 in 10.0 mi West 5.8 mph - N/A   Overcast
1:53 AM 3.0 °F -9.3 °F 1.0 °F 91% 30.10 in 9.0 mi West 6.9 mph - N/A   Overcast
2:11 AM 3.2 °F -6.2 °F 1.4 °F 92% 29.91 in 7.0 mi WSW 4.6 mph - N/A   Overcast
2:16 AM 3.2 °F -4.2 °F 1.4 °F 92% 29.91 in 5.0 mi WSW 3.5 mph - N/A   Overcast
2:25 AM 3.2 °F -4.2 °F 1.4 °F 92% 29.91 in 4.0 mi WSW 3.5 mph - N/A   Mostly Cloudy
2:33 AM 3.2 °F -6.2 °F -0.4 °F 85% 29.90 in 4.0 mi WSW 4.6 mph - N/A   Mostly Cloudy
2:53 AM 3.0 °F - -0.0 °F 87% 30.10 in 5.0 mi Calm Calm - N/A   Mostly Cloudy
3:53 AM 3.0 °F - -0.0 °F 87% 30.09 in 9.0 mi Calm Calm - N/A   Mostly Cloudy
4:53 AM -0.0 °F - -2.9 °F 88% 30.11 in 10.0 mi Calm Calm - N/A   Scattered Clouds
5:53 AM -0.0 °F -9.9 °F -2.9 °F 88% 30.12 in 10.0 mi West 4.6 mph - N/A   Clear
6:53 AM 1.9 °F -5.6 °F -0.9 °F 88% 30.14 in 10.0 mi WNW 3.5 mph - N/A   Mostly Cloudy
7:53 AM 5.0 °F -8.1 °F 1.9 °F 87% 30.15 in 10.0 mi West 8.1 mph - N/A   Mostly Cloudy
8:53 AM 7.0 °F 0.1 °F 3.9 °F 87% 30.16 in 10.0 mi West 3.5 mph - N/A   Clear
9:53 AM 14.0 °F 5.1 °F 9.0 °F 80% 30.16 in 10.0 mi WNW 5.8 mph - N/A   Mostly Cloudy
10:53 AM 19.9 °F 9.3 °F 12.0 °F 71% 30.14 in 10.0 mi WNW 9.2 mph - N/A   Clear
11:53 AM 25.0 °F 13.6 °F 14.0 °F 63% 30.11 in 10.0 mi WNW 12.7 mph - N/A   Clear
12:53 PM 28.9 °F 21.1 °F 17.1 °F 61% 30.09 in 10.0 mi NW 8.1 mph - N/A   Clear
1:53 PM 30.0 °F 24.1 °F 17.1 °F 59% 30.09 in 10.0 mi WNW 5.8 mph - N/A   Partly Cloudy
2:53 PM 30.9 °F 24.3 °F 17.1 °F 57% 30.11 in 10.0 mi WNW 6.9 mph - N/A   Partly Cloudy
3:53 PM 30.0 °F 23.2 °F 18.0 °F 61% 30.13 in 10.0 mi WNW 6.9 mph - N/A   Overcast
4:53 PM 26.1 °F 18.4 °F 15.1 °F 63% 30.18 in 10.0 mi WNW 6.9 mph - N/A   Overcast
5:53 PM 21.0 °F 16.2 °F 12.9 °F 71% 30.21 in 10.0 mi West 3.5 mph - N/A   Partly Cloudy
6:53 PM 19.0 °F 13.9 °F 14.0 °F 81% 30.23 in 10.0 mi WSW 3.5 mph - N/A   Mostly Cloudy
7:53 PM 18.0 °F 8.7 °F 12.0 °F 78% 30.22 in 10.0 mi West 6.9 mph - N/A   Mostly Cloudy
8:53 PM 16.0 °F 7.4 °F 10.0 °F 77% 30.24 in 10.0 mi WNW 5.8 mph - N/A   Clear
9:53 PM 14.0 °F 6.5 °F 7.0 °F 74% 30.25 in 10.0 mi NW 4.6 mph - N/A   Clear
10:53 PM 12.9 °F 6.9 °F 6.1 °F 74% 30.24 in 10.0 mi WNW 3.5 mph - N/A   Clear
11:53 PM 12.9 °F 1.6 °F 6.1 °F 74% 30.23 in 10.0 mi NW 8.1 mph - N/A   Clear